Regional Weather Roundup
Issued by NWS

Home | Current Version | Previous Version | Graphics & Text | Print | Product List | Glossary On
Versions: 1 2 3 4 5 6 7 8 9 10 11 12 13 14 15 16 17 18 19 20 21 22 23 24 25 26 27 28 29 30 31 32 33 34 35 36 37 38 39 40 41 42 43 44 45 46 47 48 49 50
000
ASUS43 KOAX 210202
RWRNE

WEATHER ROUNDUP FOR NEBRASKA
NATIONAL WEATHER SERVICE OMAHA NE
900 PM CDT SUN AUG 20 2017

NOTES: SATELLITE DATA IS BEING USED TO AUGMENT CLOUD COVER ABOVE
       12000 FEET.
       "FAIR" INDICATES FEW OR NO CLOUDS BELOW 12,000 FEET WITH NO
       SIGNIFICANT WEATHER AND/OR OBSTRUCTIONS TO VISIBILITY.


NEZ001>004-019>022-054>056-210300-
NEBRASKA PANHANDLE

CITY           SKY/WX    TMP DP  RH WIND       PRES   REMARKS
SCOTTSBLUFF    CLOUDY    79  60  52 SE10      30.00R
ALLIANCE       CLOUDY    71  58  63 E8        30.01R
CHADRON        CLEAR     76  55  48 E8        29.97R
GORDON         FAIR      70  57  63 SE7       30.01R
KIMBALL        CLOUDY    74  56  53 SE5       30.08R
SIDNEY         CLEAR     75  63  66 SE9       30.05R
$$

NEZ057>060-069>072-079>082-210300-
SOUTHWEST NEBRASKA

CITY           SKY/WX    TMP DP  RH WIND       PRES   REMARKS
NORTH PLATTE   CLEAR     77  69  76 NE9       29.96R
IMPERIAL       CLOUDY    75  65  70 NE6       29.96R
LEXINGTON      CLEAR     79  74  86 NE7       29.93R
MCCOOK         CLEAR     78  70  76 N8        29.91R
OGALLALA       CLEAR     78  69  74 E7        29.98R
$$

NEZ005>010-023>029-035>040-094-210300-
NORTH CENTRAL NEBRASKA

CITY           SKY/WX    TMP DP  RH WIND       PRES   REMARKS
VALENTINE      PTCLDY    74  57  55 NE9       29.99R
AINSWORTH      PTCLDY    72  70  93 E6        29.99S
BROKEN BOW     CLOUDY    78  72  81 NE9       29.96R
O`NEILL        CLEAR     73  69  89 E3        29.98R
ORD            PTCLDY    75  69  81 E7        29.94S
THEDFORD       CLEAR     75  68  79 E7        29.99R
$$

NEZ041-046>049-061>064-073>077-083>087-210300-
SOUTH CENTRAL NEBRASKA

CITY           SKY/WX    TMP DP  RH WIND       PRES   REMARKS
GRAND ISLAND   PTCLDY    78  76  93 NE8       29.92S
HASTINGS       PTCLDY    83  72  69 SE10      29.92R
HEBRON         CLEAR     85  73  67 SE9       29.90R HX  91
HOLDREGE       CLEAR     79  75  88 E8        29.91R
KEARNEY        CLEAR     79  76  90 E9        29.92R
$$

NEZ011>018-030>034-042>045-210300-
NORTHEAST NEBRASKA

CITY           SKY/WX    TMP DP  RH WIND       PRES   REMARKS
NORFOLK        CLOUDY    77  71  82 E5        29.95S
ALBION         CLOUDY    77  72  85 NE6       29.96S
BLAIR          PTCLDY    75  68  77 E7        29.95S
COLUMBUS       CLEAR     74  71  91 E7        29.94R
FREMONT        CLEAR     78  67  68 E6        29.94S
TEKAMAH        PTCLDY    74  69  85 E5        29.95R
WAYNE          CLOUDY    74  72  91 E5        29.96S
$$

NEZ050>053-065>068-078-088>093-210300-
SOUTHEAST NEBRASKA

CITY           SKY/WX    TMP DP  RH WIND       PRES   REMARKS
LINCOLN        PTCLDY    81  71  71 SE9       29.92S
OMAHA EPPLEY   PTCLDY    77  69  76 E7        29.94S
BEATRICE       CLEAR     82  73  74 SE13      29.92R
FALLS CITY     CLOUDY    77  72  84 SE7       29.94R
NEBRASKA CITY  PTCLDY    74  73  96 E5        29.95R
PLATTSMOUTH    CLEAR     74  68  83 E7        29.95R
$$

NEZ044-045-051>053-067-210300-
OMAHA AREA

CITY           SKY/WX    TMP DP  RH WIND       PRES   REMARKS
OMAHA EPPLEY   PTCLDY    77  69  76 E7        29.94S
BLAIR          PTCLDY    75  68  77 E7        29.95S
FREMONT        CLEAR     78  67  68 E6        29.94S
MILLARD        CLEAR     80  68  67 SE6       29.94R
OFFUTT AFB     CLEAR     74  68  81 NE7       29.94R
PLATTSMOUTH    CLEAR     74  68  83 E7        29.95R
WAHOO          FAIR      74  72  91 E6        29.93S
$$



USA.gov is the U.S. government's official web portal to all federal, state and local government web resources and services.